Showing default

GEESAT 6-04, 65716

Orbit data source: Space-Track

GEESAT 6-04, 65716 is a payload satellite owned by GeeSpace (CN) in LEO that was launched on Wed, 24 Sep 2025 UTC via a JIELONG-3 launch vehicle from the Yellow Sea Launch Area, China (YSLA). Payload-class satellites include a variety of spacecraft equipped with specific instruments for various scientific and technological missions. These include communications satellites like Starlink; space stations such as the ISS; scientific satellites like the Hubble; Earth observation satellites from companies like Planet Labs, Umbra, and HawkEye 360; GPS; miniature CubeSats for education and research; and military/defense satellites.

Loading next visibility...
Identifier
65716, 2025-214E
Orbit
LEO
Country
Flag of CNCN / PRC
Related business
Manufacturer
GWCG
Mission
Operational Commercial Navigation
Bus & Motor
GPS100, Unknown motor
Mass
130 kg wet, 130 kg dry
Launch date (UTC)
2025-09-24 (9 months ago)
Launch vehicle
JIELONG-3
Launch site
Yellow Sea Launch Area, China (YSLA)
Object type
Payload
Rocket body
Debris
Shape & HBR
Box + 2 Pan, 1.1 m
Radar Cross Section
0.833 m², Large (>1 m²)

Expand to show TLE details & history
Last TLE update: 1 day ago

TLE from 1 day ago
0 GEESAT 6-04
1 65716U 25214E   26170.71935199  .00001228  00000-0  17535-3 0  9996
2 65716  49.9862 296.4881 0009691 234.9119 125.0911 14.83391940 39886
Epoch: 2026-06-19T17:15Z
TLE epoch observation values (Epoch: 2026-06-19T17:15:52.011Z)
Latitude
-0.00003°
Longitude
129.57707°
Altitude
623.083 km
Speed
7.546 km/s
True Right ascension
19h 45m 57s
True Declination
0° 00' 00"
Sunlit
Object was in full shadow at epoch
Visualization orbit readout
Latitude
Unknown
Longitude
Unknown
Altitude
Unknown
Speed
Unknown
Apparent Right ascension
Unknown
Apparent Declination
Unknown
Sunlit
N/A
Visualization observer readout
Local Sidereal Time
07:12:40
Azimuth
Unknown
Elevation
Unknown
Doppler factor
Unknown
Orbital elements
Apogee altitude
626.18 km
Perigee altitude
612.617 km
Semi-major axis
6,997.535 km
Eccentricity
0.00097
Inclination
49.9862°
RAAN
296.4881°
Arg. of periapsis
234.9119°
True anomaly
125.1819°
Mean anomaly
125.0911°
Eccentric anomaly
125.13651°
Mean motion
3.70788 °/min
Orbital period
97.09 mins
BSTAR
0.00017535
Loading maneuver chart data...
Computing Atmospheric mass density...
Loading historical data...
Loading historical data...
Loading historical data...
Loading historical data...
Loading historical data...
Loading historical data...
Loading historical data...

Documentation

Showing up to 5 results
|